TimeEST,TemperatureF,Dew PointF,Humidity,Sea Level PressureIn,VisibilityMPH,Wind Direction,Wind SpeedMPH,Gust SpeedMPH,PrecipitationIn,Events,Conditions,WindDirDegrees,DateUTC
12:15 AM,33.8,30.2,87,29.58,3.0,NNW,9.2,-,N/A,,Overcast,330,2013-03-03 05:15:00
12:35 AM,33.8,30.2,87,29.57,10.0,NNW,10.4,-,N/A,,Mostly Cloudy,330,2013-03-03 05:35:00
12:55 AM,33.8,30.2,87,29.57,8.0,NW,10.4,-,N/A,,Mostly Cloudy,320,2013-03-03 05:55:00
1:15 AM,33.8,30.2,87,29.57,10.0,NNW,10.4,-,N/A,,Mostly Cloudy,330,2013-03-03 06:15:00
1:35 AM,33.8,30.2,87,29.57,10.0,NNW,13.8,-,N/A,,Overcast,330,2013-03-03 06:35:00
1:55 AM,33.8,30.2,87,29.56,10.0,NW,11.5,-,N/A,,Overcast,320,2013-03-03 06:55:00
2:15 AM,33.8,30.2,87,29.56,10.0,NNW,9.2,-,N/A,,Overcast,330,2013-03-03 07:15:00
2:35 AM,33.8,30.2,87,29.56,10.0,NNW,11.5,-,N/A,,Overcast,330,2013-03-03 07:35:00
2:55 AM,33.8,30.2,87,29.55,10.0,NNW,9.2,-,N/A,,Overcast,330,2013-03-03 07:55:00
3:15 AM,33.8,30.2,87,29.55,9.0,NNW,9.2,-,N/A,,Overcast,340,2013-03-03 08:15:00
3:35 AM,33.8,30.2,87,29.55,9.0,NNW,10.4,-,N/A,,Overcast,330,2013-03-03 08:35:00
4:15 AM,33.8,30.2,87,29.55,10.0,NNW,9.2,-,N/A,,Overcast,330,2013-03-03 09:15:00
4:35 AM,33.8,30.2,87,29.55,10.0,NW,10.4,-,N/A,,Overcast,320,2013-03-03 09:35:00
4:55 AM,33.8,30.2,87,29.56,10.0,NNW,9.2,-,N/A,,Overcast,330,2013-03-03 09:55:00
5:15 AM,33.8,30.2,87,29.56,10.0,NNW,9.2,-,N/A,,Overcast,330,2013-03-03 10:15:00
5:35 AM,33.8,30.2,87,29.55,4.0,NNW,9.2,-,N/A,,Overcast,330,2013-03-03 10:35:00
5:55 AM,32.0,30.2,93,29.55,10.0,NNW,10.4,-,N/A,,Overcast,330,2013-03-03 10:55:00
6:15 AM,32.0,30.2,93,29.56,10.0,NNW,9.2,-,N/A,,Overcast,330,2013-03-03 11:15:00
6:35 AM,33.8,30.2,87,29.56,10.0,NNW,10.4,-,N/A,,Overcast,330,2013-03-03 11:35:00
6:55 AM,33.8,30.2,87,29.56,6.0,NNW,9.2,-,N/A,,Overcast,330,2013-03-03 11:55:00
7:15 AM,33.8,30.2,87,29.56,10.0,NNW,9.2,-,N/A,,Overcast,330,2013-03-03 12:15:00
7:35 AM,33.8,30.2,87,29.55,10.0,NNW,9.2,-,N/A,,Overcast,330,2013-03-03 12:35:00
7:55 AM,33.8,30.2,87,29.55,10.0,NNW,6.9,-,N/A,,Overcast,330,2013-03-03 12:55:00
8:15 AM,33.8,30.2,87,29.56,10.0,NNW,6.9,-,N/A,,Overcast,330,2013-03-03 13:15:00
8:35 AM,33.8,30.2,87,29.56,10.0,NNW,6.9,-,N/A,,Overcast,330,2013-03-03 13:35:00
8:55 AM,35.6,30.2,81,29.55,10.0,NNW,6.9,-,N/A,,Overcast,330,2013-03-03 13:55:00
9:35 AM,35.6,30.2,81,29.54,10.0,NW,12.7,-,N/A,,Overcast,320,2013-03-03 14:35:00
9:55 AM,35.6,30.2,81,29.54,10.0,NNW,10.4,-,N/A,,Overcast,330,2013-03-03 14:55:00
10:15 AM,35.6,30.2,81,29.53,10.0,NNW,11.5,17.3,N/A,,Overcast,330,2013-03-03 15:15:00
10:35 AM,37.4,30.2,75,29.53,10.0,NNW,13.8,17.3,N/A,,Overcast,330,2013-03-03 15:35:00
10:55 AM,37.4,30.2,75,29.52,10.0,North,12.7,-,N/A,,Overcast,360,2013-03-03 15:55:00
11:15 AM,39.2,30.2,70,29.52,10.0,NNW,13.8,17.3,N/A,,Overcast,340,2013-03-03 16:15:00
11:35 AM,39.2,30.2,70,29.52,10.0,NNW,10.4,16.1,N/A,,Overcast,330,2013-03-03 16:35:00
11:55 AM,39.2,28.4,65,29.51,10.0,NNW,10.4,-,N/A,,Overcast,340,2013-03-03 16:55:00
12:15 PM,39.2,28.4,65,29.51,10.0,NNW,11.5,-,N/A,,Overcast,330,2013-03-03 17:15:00
12:35 PM,39.2,28.4,65,29.50,10.0,North,13.8,-,N/A,,Overcast,360,2013-03-03 17:35:00
12:55 PM,39.2,28.4,65,29.50,10.0,NNW,10.4,17.3,N/A,,Overcast,340,2013-03-03 17:55:00
1:15 PM,39.2,28.4,65,29.49,10.0,NNW,10.4,-,N/A,,Overcast,330,2013-03-03 18:15:00
1:35 PM,39.2,28.4,65,29.49,10.0,NNW,10.4,-,N/A,,Overcast,330,2013-03-03 18:35:00
1:55 PM,39.2,28.4,65,29.49,10.0,NNW,11.5,17.3,N/A,,Overcast,330,2013-03-03 18:55:00
2:15 PM,39.2,28.4,65,29.49,10.0,WNW,6.9,-,N/A,,Overcast,300,2013-03-03 19:15:00
2:55 PM,39.2,28.4,65,29.49,10.0,WNW,8.1,-,N/A,,Overcast,300,2013-03-03 19:55:00
3:15 PM,39.2,28.4,65,29.48,10.0,NNW,12.7,-,N/A,,Overcast,340,2013-03-03 20:15:00
3:35 PM,39.2,28.4,65,29.48,10.0,NNW,11.5,-,N/A,,Overcast,330,2013-03-03 20:35:00
3:55 PM,39.2,28.4,65,29.48,10.0,NW,10.4,-,N/A,,Overcast,320,2013-03-03 20:55:00
4:15 PM,39.2,26.6,61,29.48,10.0,NNW,9.2,-,N/A,,Overcast,330,2013-03-03 21:15:00
4:36 PM,39.2,28.4,65,29.48,10.0,NW,11.5,-,N/A,,Overcast,320,2013-03-03 21:36:00
4:55 PM,39.2,28.4,65,29.49,10.0,NNW,11.5,17.3,N/A,,Overcast,330,2013-03-03 21:55:00
5:15 PM,39.2,28.4,65,29.49,10.0,NW,9.2,16.1,N/A,,Overcast,320,2013-03-03 22:15:00
5:35 PM,39.2,28.4,65,29.49,10.0,NNW,9.2,-,N/A,,Overcast,330,2013-03-03 22:35:00
5:55 PM,37.4,28.4,70,29.49,10.0,NW,10.4,-,N/A,,Overcast,320,2013-03-03 22:55:00
6:15 PM,37.4,28.4,70,29.50,10.0,NW,10.4,-,N/A,,Overcast,310,2013-03-03 23:15:00
6:35 PM,37.4,28.4,70,29.50,10.0,NW,9.2,-,N/A,,Overcast,310,2013-03-03 23:35:00
6:55 PM,37.4,26.6,65,29.50,10.0,NW,11.5,-,N/A,,Overcast,310,2013-03-03 23:55:00
7:35 PM,35.6,26.6,70,29.50,10.0,NW,10.4,16.1,N/A,,Overcast,310,2013-03-04 00:35:00
7:55 PM,35.6,26.6,70,29.50,10.0,WNW,10.4,17.3,N/A,,Overcast,300,2013-03-04 00:55:00
8:16 PM,35.6,26.6,70,29.50,10.0,NW,11.5,-,N/A,,Overcast,310,2013-03-04 01:16:00
8:35 PM,35.6,26.6,70,29.50,10.0,NW,10.4,-,N/A,,Overcast,310,2013-03-04 01:35:00
8:55 PM,35.6,26.6,70,29.49,10.0,NW,9.2,18.4,N/A,,Overcast,310,2013-03-04 01:55:00
9:15 PM,35.6,26.6,70,29.49,10.0,WNW,8.1,-,N/A,,Overcast,290,2013-03-04 02:15:00
9:35 PM,35.6,26.6,70,29.49,10.0,WNW,8.1,-,N/A,,Overcast,290,2013-03-04 02:35:00
9:55 PM,35.6,26.6,70,29.48,10.0,WNW,6.9,-,N/A,,Overcast,290,2013-03-04 02:55:00
10:15 PM,35.6,26.6,70,29.47,10.0,WNW,8.1,-,N/A,,Overcast,300,2013-03-04 03:15:00
10:35 PM,35.6,26.6,70,29.47,10.0,WNW,8.1,-,N/A,,Overcast,290,2013-03-04 03:35:00
10:55 PM,35.6,26.6,70,29.47,10.0,West,9.2,-,N/A,,Overcast,280,2013-03-04 03:55:00
11:15 PM,35.6,26.6,70,29.47,10.0,WNW,8.1,-,N/A,,Overcast,300,2013-03-04 04:15:00
11:35 PM,33.8,26.6,75,29.47,10.0,WNW,6.9,-,N/A,,Overcast,290,2013-03-04 04:35:00
11:56 PM,33.8,24.8,70,29.47,10.0,WNW,6.9,-,N/A,,Overcast,290,2013-03-04 04:56:00